Regional Weather Roundup
Issued by NWS Green Bay, WI

Home | Current Version | Previous Version | Text Only | Print | Product List | Glossary On
Versions: 1 2 3 4 5 6 7 8 9 10 11 12 13 14 15 16 17 18 19 20 21 22 23 24 25 26 27 28 29 30 31 32 33 34 35 36 37 38 39 40 41 42 43 44 45 46 47 48 49 50
000
ASUS43 KGRB 242211
RWRGRB

NORTH-CENTRAL AND NORTHEAST WISCONSIN REGIONAL WEATHER ROUNDUP
NATIONAL WEATHER SERVICE GREEN BAY WI
400 PM CST TUE JAN 24 2017

WIZ005-009-010>012-018-019-242300-
NORTH CENTRAL WISCONSIN

CITY           SKY/WX    TMP DP  RH WIND       PRES   REMARKS
IRONWOOD       MIX PCPN  32  28  85 NW3       29.82S
MANITOWISH WTR CLOUDY    32  32 100 N3        29.79S
ARBOR VITAE    CLOUDY    37  33  85 CALM      29.79F
EAGLE RIVER    CLOUDY    34  32  93 E5        29.79S
LAND O LAKES   CLOUDY    34  32  93 CALM      29.80F
RHINELANDER    CLOUDY    37  31  78 CALM      29.79S
PHILLIPS       CLOUDY    32  29  89 N3        29.79S
ANTIGO         CLOUDY    33  31  92 CALM      29.80R
TOMAHAWK       CLOUDY    34  29  83 W3        29.80S
MERRILL        CLOUDY    35  31  84 W5          N/A
$$

WIZ013-073-242300-
NORTHEAST WISCONSIN

CITY           SKY/WX    TMP DP  RH WIND       PRES   REMARKS
IRON MOUNTAIN  CLOUDY    37  31  78 W5        29.79R
MARINETTE      NOT AVBL
OCONTO         CLOUDY    38  33  82 CALM      29.82R
$$

WIZ017-030-035>037-045-242300-
CENTRAL WISCONSIN

CITY           SKY/WX    TMP DP  RH WIND       PRES   REMARKS
MEDFORD        CLOUDY    32  29  87 NE5       29.79S
WAUSAU         CLOUDY    35  29  78 CALM      29.79R
MOSINEE        CLOUDY    34  30  86 CALM      29.80S
MARSHFIELD     CLOUDY    34  28  79 NE3       29.78F
WISC RAPIDS    CLOUDY    36  30  79 NE5       29.81F
STEVENS POINT  CLOUDY    34  29  82 CALM      29.81S
WAUPACA        CLOUDY    38  32  80 CALM      29.82S
SHAWANO        CLOUDY    40  33  75 SW3       29.81S
CLINTONVILLE   CLOUDY    37  32  81 CALM      29.81S
WAUTOMA        CLOUDY    36  30  79 CALM      29.82S
$$

WIZ038-039-048-051-242300-
FOX VALLEY

CITY           SKY/WX    TMP DP  RH WIND       PRES   REMARKS
NWS GREEN BAY  CLOUDY    40  35  83 W6        29.81S
APPLETON       CLOUDY    36  34  93 N3        29.80S
OSHKOSH        CLOUDY    37  31  78 NW5       29.81S
FOND DU LAC    CLOUDY    38  30  73 CALM      29.82R
$$

WIZ022-050-052-242300-
EAST CENTRAL WISCONSIN

CITY           SKY/WX    TMP DP  RH WIND       PRES   REMARKS
EPHRAIM        CLOUDY    36  36 100 CALM      29.80R
WASHINGTON ISL CLOUDY    35  34  95 NW3       29.81R
STURGEON BAY   CLOUDY    37  36  96 CALM      29.82S
MANITOWOC      CLOUDY    39  35  86 MISG      29.83R
SHEBOYGAN      CLOUDY    38  32  79 NW5       29.82R
$$

LMZ563-521-522-541>543-242300-
LAKESHORE

STATION/POSITION TIME  TEMP    WIND        PRES    VSBY  WAVE
                       AIR SEA DIR/SP/G                  HT/PER
                 (UTC) (F)     (DEG/KT/KT) (MB)    (MI)  (FT/S)
SHEBOYGAN LKSHOR 2200   38     330/  2/  3 1010.2R
KEWAUNEE LKSHORE 2148   39     320/  3/  7 1009.4R
NORTHPORT PIER   2140   36     280/  5/  7 1009.8R
SISTER BAY LKSHO 2135   34        CALM       N/A
CHAMBERS ISLAND  2140   37      CALM  /  1 1009.5R
MENOMINEE LKSHOR 2148   39     290/  4/  6 1009.1R
$$




USA.gov is the U.S. government's official web portal to all federal, state and local government web resources and services.